SCP
-0 -0 -0 -0 -0 -0 -0 -0 -0 -0 -0 -0 -0 -0 -0 -0 -0 -0 -0 -0 -0 -0 -0 -0 -0 -0 -0
-0 -0 -0 -0 -0 -0 -0 -0 -0 -0 -0 -0 -0 -0 -0 -0 -0 -0 -0 -0 -0 -0 -0 -0 -0 -0 0
-0 -0 -0 -0 -0 -0 -0 -0 -0 0 -0 -0 -0 -0 -0 -0 -0 -0 -0 -0 -0 -0 -0 -0 0 0 0
0 0 0 0 0 0 0 0 0 0 0 0 0 -0 -0 -0 -0 -0 -0 0 0 0 0 0 0 0 0
0 0 0 0 0 0 0 0 0 0 0 0 0 0 0 0 0 0 0 0 0 0 0 0 0 0 0
0 0 0 0 0 0 0 0 0 0 0 0 0 0 0 0 0 0 0 0 0 0 0 0 0 0 0
0 0 0 0 0 0 0 0 0 0 0 0 0 0 0 0 0 0 0 0 0 0 0 0 0 0 0
0 0 0 0 0 0 0 0 0 0 0 0 0 0 0 0 0 0 0 0 0 0 0 0 0 0 0
0 0 0 0 0 0 0 0 0 0 0 0 0 0 0 0 0 0 0 0 0 0 0 0 0 0 0
0 0 0 0 0 0 0 0 0 0 0 0 0 0 0 0 0 0 0 0 0 0 0 0 0 0 0
0 0 0 0 0 0 0 0 0 0 0 0 0 0 0 0 0 0 0 0 0 0 0 0 0 0 0
0 0 0 0 0 0 0 0 0 0 0 0 0 0 0 0 0 0 0 0 0 0 0 0 0 0 0
0 0 0 0 0 0 0 0 0 0 0 0 0 0 0 0 0 0 0 0 0 0 0 0 0 0 0
0 0 0 0 0 0 0 0 0 0 0 0 0 0 0 0 0 0 0 0 0 0 0 0 0 0 0
0 0 0 0 0 0 0 0 0 0 0 0 0 0 0 0 0 0 0 0 0 0 0 0 0 0 0
0 0 0 0 0 0 0 0 0 0 0 0 0 0 0 0 0 0 0 0 0 0 0 0 0 0 0
Wind_Speed_500mb
23 20 17 15 14 13 11 11 12 13 13 12 13 15 18 20 21 23 25 28 30 31 33 32 26 28 37
29 26 21 17 15 14 13 10 9 12 14 15 15 16 17 19 21 23 26 27 29 29 28 26 26 37 43
31 29 26 21 18 16 15 12 8 9 13 17 19 19 18 19 21 24 26 27 28 27 24 23 28 38 39
31 32 30 28 26 24 21 17 13 11 9 13 18 20 19 19 21 23 27 27 24 23 19 19 31 38 42
40 34 36 34 32 30 27 25 18 10 7 13 13 16 17 16 17 20 22 21 21 20 19 22 30 34 38
44 41 38 38 37 36 31 34 33 21 16 15 14 14 16 17 15 12 10 12 16 21 24 23 31 38 40
50 49 45 43 39 39 38 42 38 33 29 25 24 21 20 16 14 13 8 12 14 18 22 22 26 32 29
56 56 53 48 43 41 45 46 45 42 39 35 30 29 29 25 25 21 19 18 17 17 19 24 23 29 33
69 64 61 51 53 49 49 47 48 47 49 42 38 38 32 32 32 28 25 24 21 19 21 27 27 29 33
66 67 62 60 61 55 48 50 53 53 51 51 48 45 44 44 41 31 34 32 26 23 21 30 32 32 32
67 68 69 68 62 62 65 59 52 56 60 60 50 54 50 47 45 40 41 39 34 33 27 31 35 34 35
72 70 71 75 71 68 67 73 69 60 60 64 62 60 56 56 52 48 48 50 43 37 30 32 36 38 36
78 81 81 81 77 74 70 73 77 72 67 70 70 67 62 63 59 56 60 62 57 52 42 38 39 40 40
80 83 83 81 79 77 75 76 80 79 75 77 80 76 67 69 73 73 72 70 67 59 53 42 36 41 47
81 82 82 79 81 84 86 84 82 84 85 85 88 84 77 76 78 76 77 73 77 71 62 39 24 29 50
81 83 87 90 90 89 87 82 79 81 86 89 93 92 84 83 85 85 74 84 90 74 71 65 57 34 34
Wind_Direction_500mb
185 188 183 174 164 159 143 116 91 84 93 101 103 105 107 109 111 113 114 119 122 121 122 123 118 99 96
192 194 195 190 184 178 168 153 120 105 103 104 108 110 115 118 119 117 119 123 123 126 125 119 113 114 106
203 200 199 201 199 196 190 182 152 126 117 115 113 112 116 123 124 123 124 128 128 127 127 130 131 121 117
206 207 206 209 212 210 204 198 202 194 147 141 130 124 122 126 128 130 132 132 133 127 124 128 130 132 129
210 214 214 214 216 215 207 205 214 217 186 178 168 148 138 133 134 140 147 154 158 146 142 132 140 137 131
214 215 220 216 214 219 211 206 214 213 214 211 202 189 169 155 161 161 164 172 171 165 158 155 154 151 146
211 217 220 218 217 223 221 213 222 217 217 216 225 212 213 197 214 183 196 197 197 188 179 183 165 168 158
211 218 221 217 225 227 226 226 229 219 224 221 219 210 221 230 224 212 221 204 203 205 202 195 183 167 171
214 218 222 217 223 229 228 229 232 228 224 226 222 223 230 235 229 237 220 210 216 220 229 200 192 182 177
224 222 228 224 219 229 227 232 235 236 232 226 223 224 225 230 227 230 227 222 216 216 224 205 199 195 192
227 223 227 232 230 225 230 235 233 235 235 235 228 226 232 234 232 226 229 226 219 205 215 215 205 202 202
227 228 228 233 234 232 228 230 239 237 236 239 229 231 231 232 228 230 229 218 218 207 205 223 213 209 208
228 227 229 232 235 235 230 229 227 232 235 234 233 232 232 235 239 236 230 219 208 207 207 209 211 214 214
233 234 234 238 241 244 245 237 236 232 230 232 236 238 240 235 232 227 230 224 209 214 207 207 205 216 218
237 234 236 237 240 241 245 244 241 240 238 235 238 238 240 238 241 237 235 234 219 215 213 215 196 215 216
239 237 238 239 240 245 247 251 247 244 239 236 238 239 240 238 241 233 244 238 229 227 214 222 223 224 193
Wind_Speed_850mb
23 20 17 15 14 13 11 11 12 13 13 12 13 15 18 20 21 23 25 28 30 31 33 32 26 28 37
29 26 21 17 15 14 13 10 9 12 14 15 15 16 17 19 21 23 26 27 29 29 28 26 26 37 43
31 29 26 21 18 16 15 12 8 9 13 17 19 19 18 19 21 24 26 27 28 27 24 23 28 38 39
31 32 30 28 26 24 21 17 13 11 9 13 18 20 19 19 21 23 27 27 24 23 19 19 31 38 42
40 34 36 34 32 30 27 25 18 10 7 13 13 16 17 16 17 20 22 21 21 20 19 22 30 34 38
44 41 38 38 37 36 31 34 33 21 16 15 14 14 16 17 15 12 10 12 16 21 24 23 31 38 40
50 49 45 43 39 39 38 42 38 33 29 25 24 21 20 16 14 13 8 12 14 18 22 22 26 32 29
56 56 53 48 43 41 45 46 45 42 39 35 30 29 29 25 25 21 19 18 17 17 19 24 23 29 33
69 64 61 51 53 49 49 47 48 47 49 42 38 38 32 32 32 28 25 24 21 19 21 27 27 29 33
66 67 62 60 61 55 48 50 53 53 51 51 48 45 44 44 41 31 34 32 26 23 21 30 32 32 32
67 68 69 68 62 62 65 59 52 56 60 60 50 54 50 47 45 40 41 39 34 33 27 31 35 34 35
72 70 71 75 71 68 67 73 69 60 60 64 62 60 56 56 52 48 48 50 43 37 30 32 36 38 36
78 81 81 81 77 74 70 73 77 72 67 70 70 67 62 63 59 56 60 62 57 52 42 38 39 40 40
80 83 83 81 79 77 75 76 80 79 75 77 80 76 67 69 73 73 72 70 67 59 53 42 36 41 47
81 82 82 79 81 84 86 84 82 84 85 85 88 84 77 76 78 76 77 73 77 71 62 39 24 29 50
81 83 87 90 90 89 87 82 79 81 86 89 93 92 84 83 85 85 74 84 90 74 71 65 57 34 34
Wind_Direction_850mb
185 188 183 174 164 159 143 116 91 84 93 101 103 105 107 109 111 113 114 119 122 121 122 123 118 99 96
192 194 195 190 184 178 168 153 120 105 103 104 108 110 115 118 119 117 119 123 123 126 125 119 113 114 106
203 200 199 201 199 196 190 182 152 126 117 115 113 112 116 123 124 123 124 128 128 127 127 130 131 121 117
206 207 206 209 212 210 204 198 202 194 147 141 130 124 122 126 128 130 132 132 133 127 124 128 130 132 129
210 214 214 214 216 215 207 205 214 217 186 178 168 148 138 133 134 140 147 154 158 146 142 132 140 137 131
214 215 220 216 214 219 211 206 214 213 214 211 202 189 169 155 161 161 164 172 171 165 158 155 154 151 146
211 217 220 218 217 223 221 213 222 217 217 216 225 212 213 197 214 183 196 197 197 188 179 183 165 168 158
211 218 221 217 225 227 226 226 229 219 224 221 219 210 221 230 224 212 221 204 203 205 202 195 183 167 171
214 218 222 217 223 229 228 229 232 228 224 226 222 223 230 235 229 237 220 210 216 220 229 200 192 182 177
224 222 228 224 219 229 227 232 235 236 232 226 223 224 225 230 227 230 227 222 216 216 224 205 199 195 192
227 223 227 232 230 225 230 235 233 235 235 235 228 226 232 234 232 226 229 226 219 205 215 215 205 202 202
227 228 228 233 234 232 228 230 239 237 236 239 229 231 231 232 228 230 229 218 218 207 205 223 213 209 208
228 227 229 232 235 235 230 229 227 232 235 234 233 232 232 235 239 236 230 219 208 207 207 209 211 214 214
233 234 234 238 241 244 245 237 236 232 230 232 236 238 240 235 232 227 230 224 209 214 207 207 205 216 218
237 234 236 237 240 241 245 244 241 240 238 235 238 238 240 238 241 237 235 234 219 215 213 215 196 215 216
239 237 238 239 240 245 247 251 247 244 239 236 238 239 240 238 241 233 244 238 229 227 214 222 223 224 193